SPAINSAT

Last updated on Sun Apr 12 2026 00:02:51 GMT+0000 (Coordinated Universal Time)

1 28945U 06007A 26100.53184738 -.00000215 00000+0 00000+0 0 9996 2 28945 0.3868 87.6132 0004917 307.0962 325.3205 1.00273778 73544
UTC large
Height (km)
Speed (km/s)
/
Latitude / Longitude
Inclination (degrees)
Orbital Period (minutes)
Azimuth
Elevation
Range (km)
Doppler Factor

Next 0 passes for location: London (51.5072 / 0.1276)

Sorry there are no passes over London.
SPAINSAT